Temp
-14 -14 -14 -14 -14 -14 -15 -13 -14 -14 -14 -16 -15 -15 -16 -16 -16 -17 -17 -17 -17 -17 -17 -17 -17 -17 -17 -17 -18 -18 -18 -18 -18 -18 -18 -19 -19 -19 -19 -19 -19 -19 -18
-15 -15 -14 -14 -14 -14 -14 -14 -15 -14 -15 -15 -15 -15 -16 -16 -17 -16 -16 -17 -17 -17 -17 -17 -18 -18 -19 -19 -18 -18 -18 -19 -19 -19 -19 -19 -19 -19 -19 -19 -20 -20 -20
-15 -15 -15 -15 -15 -15 -15 -15 -15 -15 -15 -15 -16 -16 -16 -17 -17 -18 -18 -18 -18 -18 -18 -19 -19 -19 -18 -18 -18 -18 -19 -19 -19 -19 -19 -19 -19 -19 -20 -20 -21 -21 -21
-15 -15 -16 -16 -16 -16 -16 -15 -15 -16 -16 -16 -16 -16 -17 -17 -18 -18 -18 -18 -19 -19 -19 -18 -18 -18 -18 -18 -18 -18 -18 -19 -19 -19 -20 -20 -20 -20 -21 -21 -21 -21 -22
-15 -16 -16 -16 -16 -16 -15 -16 -16 -16 -16 -16 -17 -16 -17 -17 -18 -18 -19 -19 -18 -18 -18 -18 -18 -18 -18 -18 -19 -19 -19 -20 -20 -20 -21 -21 -21 -22 -23 -23 -24 -25 -26
-16 -16 -16 -16 -16 -16 -16 -17 -16 -16 -16 -16 -16 -17 -18 -18 -18 -18 -18 -18 -18 -18 -18 -18 -18 -18 -19 -19 -19 -20 -20 -21 -21 -22 -22 -22 -23 -24 -26 -27 -28 -29 -29
-16 -16 -16 -16 -16 -16 -16 -16 -16 -16 -16 -17 -17 -18 -18 -18 -18 -18 -18 -18 -18 -18 -18 -18 -19 -19 -19 -20 -20 -21 -21 -22 -22 -22 -23 -25 -26 -28 -29 -30 -31 -31 -31
-15 -15 -15 -15 -15 -16 -16 -16 -16 -17 -17 -17 -18 -18 -18 -18 -18 -18 -18 -18 -18 -18 -18 -19 -19 -20 -20 -21 -21 -22 -22 -23 -23 -25 -26 -28 -29 -30 -31 -32 -32 -31 -31
-15 -15 -15 -15 -15 -15 -16 -16 -16 -17 -17 -17 -18 -18 -18 -19 -18 -19 -19 -18 -18 -19 -19 -19 -20 -20 -21 -21 -22 -23 -23 -25 -26 -28 -29 -29 -31 -32 -32 -32 -32 -32 -31
-15 -15 -15 -15 -15 -16 -16 -16 -16 -17 -17 -18 -18 -18 -18 -19 -19 -19 -19 -19 -19 -19 -19 -20 -20 -21 -22 -22 -23 -24 -26 -27 -29 -30 -30 -31 -31 -31 -32 -32 -32 -32 -32
-15 -15 -15 -16 -16 -16 -16 -17 -17 -17 -18 -18 -19 -19 -19 -19 -19 -19 -19 -19 -19 -19 -20 -20 -21 -22 -23 -24 -25 -27 -28 -30 -31 -31 -31 -31 -31 -32 -32 -32 -32 -32 -32
-15 -15 -16 -16 -16 -16 -16 -17 -17 -18 -18 -19 -19 -20 -20 -19 -19 -19 -19 -19 -20 -20 -21 -21 -22 -23 -24 -26 -27 -28 -30 -31 -31 -31 -31 -32 -32 -32 -32 -32 -32 -33 -33
-15 -15 -16 -16 -16 -17 -17 -18 -18 -18 -19 -19 -19 -19 -19 -20 -20 -20 -20 -20 -21 -21 -22 -23 -23 -24 -25 -28 -29 -30 -32 -32 -32 -32 -32 -32 -32 -32 -32 -33 -33 -34 -34
-16 -16 -16 -16 -17 -17 -18 -18 -18 -19 -19 -19 -19 -19 -20 -20 -20 -20 -21 -21 -22 -22 -23 -23 -24 -26 -28 -29 -30 -32 -32 -32 -32 -32 -32 -32 -33 -32 -33 -33 -33 -34 -34
-16 -16 -17 -17 -17 -18 -18 -19 -19 -19 -19 -19 -20 -20 -20 -21 -21 -21 -21 -22 -22 -23 -23 -24 -26 -28 -29 -30 -32 -32 -32 -32 -32 -32 -32 -33 -32 -32 -33 -33 -34 -34 -34
-17 -17 -17 -17 -18 -18 -19 -19 -19 -19 -20 -20 -20 -21 -21 -21 -21 -22 -22 -22 -23 -24 -25 -26 -28 -29 -30 -31 -32 -32 -33 -33 -33 -33 -33 -33 -33 -33 -33 -34 -34 -34 -34
-17 -17 -17 -18 -18 -19 -19 -19 -20 -20 -20 -21 -21 -21 -21 -21 -22 -22 -23 -23 -24 -25 -27 -29 -30 -31 -31 -32 -33 -33 -33 -33 -33 -33 -33 -33 -33 -33 -33 -34 -34 -34 -34
-17 -18 -18 -18 -19 -19 -20 -20 -20 -20 -21 -21 -21 -21 -22 -22 -23 -23 -23 -24 -25 -27 -29 -30 -31 -31 -32 -33 -33 -33 -33 -33 -33 -33 -33 -33 -33 -33 -33 -34 -34 -34 -34
-18 -18 -18 -19 -19 -20 -20 -20 -21 -21 -21 -21 -22 -22 -22 -23 -23 -24 -25 -25 -27 -29 -30 -31 -31 -32 -33 -33 -33 -33 -33 -33 -34 -33 -33 -33 -33 -33 -33 -34 -34 -33 -34
-18 -18 -19 -19 -20 -20 -20 -21 -21 -21 -22 -22 -22 -23 -23 -23 -24 -25 -26 -27 -28 -29 -30 -31 -32 -33 -33 -33 -33 -33 -33 -34 -34 -34 -33 -33 -33 -33 -33 -33 -34 -34 -34
-19 -19 -19 -20 -20 -20 -21 -21 -21 -22 -22 -23 -23 -23 -24 -24 -25 -26 -27 -28 -29 -30 -31 -32 -32 -33 -33 -34 -34 -34 -34 -34 -34 -33 -33 -33 -33 -33 -33 -33 -34 -34 -34
-19 -19 -19 -20 -20 -21 -21 -22 -22 -22 -23 -23 -24 -24 -25 -25 -26 -27 -29 -29 -30 -31 -32 -32 -33 -33 -34 -34 -34 -34 -34 -34 -34 -33 -33 -33 -33 -33 -33 -33 -34 -34 -33
-19 -20 -20 -20 -21 -21 -21 -22 -22 -23 -23 -24 -24 -25 -25 -26 -27 -28 -29 -30 -31 -32 -32 -33 -33 -34 -34 -34 -34 -34 -34 -34 -34 -33 -33 -33 -34 -34 -34 -33 -34 -34 -33
-20 -20 -21 -21 -21 -22 -22 -22 -23 -23 -24 -24 -25 -25 -26 -27 -28 -29 -30 -30 -32 -32 -33 -33 -34 -34 -34 -34 -34 -34 -34 -34 -34 -34 -33 -33 -34 -34 -34 -34 -33 -34 -34
-20 -21 -21 -21 -22 -22 -22 -23 -23 -24 -24 -25 -26 -26 -27 -28 -29 -30 -30 -31 -32 -33 -33 -34 -34 -34 -34 -34 -34 -34 -35 -35 -34 -34 -34 -34 -34 -34 -34 -34 -34 -33 -33
-21 -21 -21 -22 -22 -23 -23 -23 -23 -24 -25 -26 -26 -27 -28 -29 -30 -30 -31 -32 -33 -33 -33 -34 -34 -34 -34 -34 -34 -35 -35 -35 -35 -35 -35 -34 -34 -34 -34 -34 -34 -34 -34
Height
5811 5810 5810 5810 5809 5808 5808 5804 5801 5799 5782 5781 5782 5780 5776 5773 5768 5766 5763 5759 5755 5751 5746 5742 5738 5733 5727 5721 5716 5711 5706 5701 5697 5692 5686 5681 5675 5671 5665 5661 5657 5653 5649
5807 5806 5805 5804 5803 5803 5802 5791 5790 5792 5785 5779 5776 5772 5768 5764 5760 5758 5755 5750 5745 5740 5736 5731 5725 5718 5712 5707 5702 5696 5690 5684 5677 5671 5664 5657 5652 5648 5639 5634 5629 5624 5620
5803 5801 5800 5800 5798 5797 5796 5794 5790 5786 5781 5776 5771 5766 5761 5757 5753 5747 5742 5738 5734 5729 5724 5719 5713 5707 5701 5695 5688 5681 5673 5664 5655 5647 5638 5630 5623 5615 5608 5603 5594 5590 5583
5798 5796 5796 5794 5792 5790 5789 5787 5784 5779 5775 5770 5765 5760 5755 5751 5745 5740 5735 5731 5726 5721 5715 5708 5701 5694 5687 5679 5670 5661 5651 5642 5633 5623 5613 5602 5592 5584 5579 5568 5557 5556 5548
5793 5792 5790 5788 5786 5784 5780 5778 5775 5771 5767 5763 5758 5753 5747 5741 5736 5731 5726 5721 5715 5709 5701 5694 5686 5678 5669 5660 5650 5639 5628 5618 5608 5598 5588 5579 5566 5551 5538 5530 5523 5517 5509
5787 5785 5783 5781 5779 5776 5773 5770 5767 5762 5759 5754 5749 5743 5737 5732 5727 5721 5716 5709 5703 5695 5687 5679 5670 5660 5650 5640 5630 5620 5608 5598 5586 5574 5560 5546 5534 5520 5505 5494 5490 5491 5488
5781 5779 5777 5775 5772 5769 5766 5763 5759 5754 5750 5745 5739 5733 5727 5722 5716 5710 5703 5696 5689 5681 5672 5664 5654 5644 5633 5622 5612 5599 5585 5571 5556 5541 5528 5513 5501 5493 5484 5474 5468 5469 5470
5776 5774 5772 5769 5766 5763 5759 5756 5751 5746 5741 5734 5729 5723 5718 5712 5705 5698 5691 5682 5674 5666 5657 5647 5638 5626 5614 5601 5587 5573 5557 5544 5529 5515 5502 5491 5481 5474 5467 5460 5455 5454 5454
5772 5770 5767 5765 5761 5758 5753 5749 5743 5737 5731 5726 5719 5712 5706 5700 5693 5685 5678 5669 5661 5652 5642 5631 5619 5605 5591 5577 5562 5548 5533 5519 5505 5493 5484 5476 5468 5462 5456 5450 5443 5438 5439
5767 5765 5762 5758 5754 5750 5745 5740 5734 5728 5722 5714 5707 5701 5694 5687 5680 5673 5664 5656 5646 5636 5625 5612 5599 5585 5570 5555 5540 5524 5510 5496 5487 5478 5472 5466 5459 5452 5445 5437 5431 5425 5421
5761 5758 5754 5751 5747 5742 5736 5730 5724 5717 5711 5704 5696 5689 5682 5675 5667 5659 5650 5641 5630 5619 5607 5593 5580 5566 5550 5534 5519 5504 5491 5482 5475 5469 5462 5455 5447 5440 5432 5425 5418 5411 5406
5754 5750 5746 5742 5737 5730 5724 5718 5712 5706 5699 5692 5684 5677 5670 5663 5655 5645 5635 5624 5613 5600 5587 5574 5561 5546 5531 5514 5499 5487 5478 5471 5465 5458 5451 5444 5437 5428 5420 5412 5406 5399 5393
5746 5741 5736 5731 5725 5719 5714 5709 5703 5696 5689 5682 5673 5666 5657 5649 5640 5631 5620 5608 5596 5583 5569 5555 5541 5526 5511 5496 5482 5473 5467 5461 5454 5448 5441 5433 5425 5417 5409 5402 5395 5389 5383
5736 5731 5727 5721 5715 5710 5704 5698 5691 5685 5677 5669 5661 5653 5644 5636 5626 5616 5604 5592 5580 5566 5550 5535 5521 5504 5490 5478 5469 5463 5457 5451 5445 5438 5430 5422 5413 5406 5399 5392 5386 5380 5373
5727 5722 5716 5711 5705 5700 5693 5687 5680 5672 5664 5656 5648 5640 5631 5622 5612 5600 5587 5574 5560 5546 5531 5516 5500 5486 5474 5464 5458 5453 5448 5442 5436 5428 5421 5412 5403 5395 5388 5382 5377 5370 5363
5716 5711 5706 5701 5695 5688 5682 5676 5668 5660 5651 5643 5635 5627 5618 5607 5596 5584 5570 5557 5543 5529 5513 5496 5482 5471 5462 5455 5449 5444 5439 5433 5427 5420 5411 5402 5394 5387 5379 5373 5367 5360 5352
5706 5700 5695 5689 5683 5677 5670 5662 5654 5646 5638 5630 5622 5613 5603 5592 5579 5567 5554 5540 5525 5509 5493 5480 5468 5458 5452 5446 5441 5436 5431 5424 5418 5410 5402 5394 5385 5378 5372 5367 5359 5351 5341
5694 5689 5683 5677 5671 5664 5657 5650 5642 5634 5626 5618 5609 5598 5587 5575 5562 5549 5536 5522 5507 5491 5477 5466 5456 5448 5443 5438 5433 5428 5423 5416 5409 5401 5393 5385 5377 5370 5364 5359 5352 5344 5333
5682 5677 5671 5665 5659 5652 5644 5637 5630 5622 5613 5604 5593 5582 5571 5559 5546 5532 5518 5503 5488 5475 5465 5454 5446 5439 5434 5430 5426 5421 5415 5408 5401 5393 5385 5376 5369 5362 5357 5352 5346 5337 5326
5670 5664 5659 5653 5646 5639 5632 5624 5616 5608 5598 5588 5577 5566 5555 5543 5530 5516 5501 5486 5473 5462 5452 5443 5436 5431 5426 5422 5418 5413 5407 5401 5394 5386 5377 5369 5362 5356 5351 5346 5340 5332 5322
5658 5652 5646 5640 5634 5626 5618 5611 5602 5593 5583 5572 5562 5551 5539 5527 5513 5500 5485 5473 5461 5450 5442 5434 5427 5423 5418 5414 5410 5405 5399 5393 5386 5379 5370 5362 5356 5350 5345 5340 5335 5328 5319
5645 5640 5633 5626 5619 5611 5605 5597 5588 5578 5568 5558 5547 5535 5523 5510 5497 5483 5471 5460 5449 5439 5431 5424 5419 5415 5410 5407 5402 5397 5392 5386 5379 5371 5364 5356 5351 5345 5340 5336 5331 5325 5317
5633 5626 5619 5612 5605 5599 5591 5582 5573 5562 5552 5543 5532 5520 5507 5494 5481 5469 5458 5447 5437 5429 5421 5416 5411 5407 5403 5400 5396 5391 5385 5379 5372 5365 5358 5351 5346 5341 5335 5331 5328 5323 5316
5619 5613 5606 5600 5592 5584 5576 5568 5558 5547 5537 5527 5516 5505 5493 5480 5467 5456 5446 5435 5426 5419 5412 5407 5403 5400 5396 5393 5389 5385 5379 5373 5367 5360 5353 5346 5341 5337 5333 5327 5324 5321 5316
5606 5600 5592 5584 5576 5568 5560 5551 5542 5531 5521 5511 5499 5488 5477 5465 5454 5443 5433 5424 5416 5409 5404 5399 5396 5393 5390 5386 5383 5379 5374 5369 5363 5356 5349 5343 5337 5332 5328 5324 5320 5318 5315
5591 5584 5577 5569 5561 5553 5543 5534 5525 5516 5506 5495 5484 5473 5462 5451 5441 5431 5421 5414 5407 5401 5396 5392 5388 5385 5383 5380 5376 5373 5369 5364 5359 5353 5347 5340 5334 5329 5325 5321 5317 5314 5312
Wind_Speed
12 13 14 15 18 20 21 21 21 24 28 24 47 48 46 47 50 52 56 55 48 44 41 41 44 47 52 55 58 62 64 65 67 68 70 72 73 74 76 77 79 81 84
14 15 17 19 19 17 16 26 22 32 45 49 49 49 51 52 54 59 57 48 44 43 46 49 53 57 59 61 63 64 66 68 72 75 78 80 81 81 84 86 89 91 90
16 18 20 21 22 23 24 27 35 42 43 46 48 51 50 53 61 56 54 51 51 52 54 56 57 59 62 64 67 69 73 78 81 84 88 91 93 94 96 99 101 100 99
18 21 21 22 25 25 28 33 40 40 43 46 48 45 52 57 50 49 51 53 54 55 56 58 60 63 66 70 74 79 84 86 89 91 94 95 101 105 107 109 108 104 100
17 20 22 21 23 28 31 33 39 42 42 49 47 57 52 50 51 51 53 54 56 58 60 63 65 71 75 78 82 86 90 91 93 98 97 101 106 111 106 98 90 87 86
19 21 22 25 28 32 35 37 40 44 49 49 51 50 48 50 52 53 54 56 58 60 64 67 72 76 80 84 88 91 92 93 96 98 103 106 105 91 84 79 70 63 60
18 21 23 25 29 31 35 37 40 43 46 47 49 49 50 51 53 54 57 59 60 63 68 72 77 81 85 88 91 91 95 98 102 106 104 93 77 69 64 61 61 54 44
14 16 19 21 23 26 30 33 37 40 43 47 49 51 53 53 54 57 58 60 64 68 73 78 82 85 88 92 93 97 100 104 104 96 78 66 61 57 49 44 45 42 36
15 17 19 22 25 28 30 33 37 41 46 48 50 51 52 54 57 59 61 64 68 73 77 82 86 89 92 95 98 99 103 100 86 67 56 49 42 41 43 46 49 50 44
19 20 22 25 27 30 33 36 39 41 44 48 52 55 56 58 60 62 64 68 73 78 83 87 91 93 94 97 98 100 93 78 60 50 44 41 41 43 47 49 49 52 50
23 25 27 29 31 32 35 39 42 45 49 52 54 56 58 59 60 64 69 73 79 84 87 90 92 92 95 98 96 87 71 54 46 43 40 43 45 47 49 51 51 49 50
26 29 31 34 37 40 43 46 47 49 52 54 55 57 58 59 62 67 72 79 83 87 89 90 91 94 97 91 81 68 50 44 43 42 44 46 47 49 50 48 48 47 41
32 35 37 40 42 44 46 48 49 50 53 54 56 56 58 62 66 72 78 83 86 87 88 90 93 97 91 78 64 48 42 41 42 43 46 48 49 49 46 45 42 38 42
36 38 40 43 45 47 49 50 52 53 56 57 57 58 61 65 71 76 81 84 85 87 89 94 96 90 75 62 47 39 39 41 43 45 48 50 49 47 43 41 37 39 42
38 40 42 44 47 49 51 52 53 56 58 59 59 61 65 70 75 79 82 84 87 89 93 95 88 73 62 48 39 37 39 41 43 45 48 48 48 44 43 37 37 40 42
42 43 45 47 49 51 52 53 55 58 59 60 61 64 69 74 78 80 82 85 88 91 94 88 71 62 51 40 35 36 38 42 43 45 47 46 47 41 38 35 38 40 44
45 47 49 51 53 53 54 56 58 59 61 62 64 68 73 76 78 81 84 86 90 92 86 71 61 52 42 36 35 36 38 41 43 45 46 45 44 39 33 33 36 40 46
49 49 51 54 54 54 56 58 59 61 62 64 68 72 75 76 79 82 85 88 90 83 70 61 53 45 37 34 34 35 37 39 42 45 44 44 39 37 30 31 35 39 43
51 51 54 54 55 56 57 58 60 61 63 68 72 74 75 77 80 83 87 88 81 72 63 54 47 39 34 33 32 32 36 39 41 43 43 42 34 34 29 30 32 37 41
54 54 56 55 56 57 59 59 60 63 68 71 73 74 77 79 81 85 86 78 72 66 57 48 42 36 32 31 31 33 35 37 40 41 42 37 31 31 27 28 31 35 37
53 54 56 56 57 58 59 61 63 67 71 73 73 77 79 79 83 84 77 70 68 62 51 44 37 33 31 30 31 32 35 37 38 39 38 32 27 29 25 26 29 32 34
54 56 58 58 58 59 62 63 67 71 73 73 76 79 78 81 82 75 68 67 64 54 45 39 34 31 29 28 29 31 33 36 36 37 36 30 25 27 23 23 27 29 31
56 57 58 58 59 62 64 67 71 72 74 76 79 77 80 81 77 68 65 65 59 49 41 36 31 28 27 26 27 29 31 33 35 35 34 30 24 25 25 21 23 26 27
57 57 57 59 62 63 68 71 72 74 76 78 78 80 81 77 69 63 63 61 52 43 36 32 28 26 25 25 26 27 29 31 34 34 33 30 25 22 24 21 19 21 23
57 58 62 63 63 68 72 74 74 77 77 78 79 79 76 70 63 61 60 54 44 37 33 30 26 25 25 24 24 25 26 28 31 33 33 31 28 25 23 23 18 18 19
58 61 63 65 68 71 75 76 79 78 78 78 77 76 71 64 59 58 54 47 38 33 31 28 25 25 24 24 22 23 23 26 28 31 32 30 28 24 21 21 19 16 16
Wind_Direction
268 267 265 263 259 269 276 280 265 264 281 301 307 307 311 313 319 317 314 311 307 302 300 300 301 303 305 307 307 306 306 304 303 300 299 297 295 292 290 288 286 285 282
288 293 289 288 289 281 271 275 300 288 301 308 307 308 311 311 310 308 309 310 309 307 307 308 308 308 307 305 305 305 304 304 303 303 302 299 298 295 292 291 290 288 284
290 286 291 294 285 289 285 285 294 303 303 305 305 306 306 306 308 311 313 312 310 308 308 306 302 301 303 304 304 303 303 304 305 305 303 301 300 297 296 296 294 290 286
291 294 298 288 285 294 299 299 297 296 293 300 297 297 301 304 309 308 305 303 301 300 298 299 302 303 305 306 306 307 307 305 305 305 304 303 302 300 297 295 290 286 282
296 300 287 278 278 283 289 297 297 286 291 286 285 303 306 309 308 304 299 295 295 297 300 303 304 307 307 307 307 308 308 306 305 304 303 302 302 301 299 293 287 284 281
287 283 280 282 287 287 289 288 285 286 297 297 301 305 304 302 299 295 295 297 301 303 305 307 307 307 308 309 308 307 305 304 303 304 305 306 305 300 294 291 290 289 286
286 286 292 293 294 300 303 305 304 306 307 306 304 300 298 297 297 298 300 303 304 306 308 307 308 308 307 307 308 306 306 307 309 311 311 308 300 298 296 294 293 295 296
307 310 311 313 311 311 309 309 308 305 301 298 297 295 296 298 299 301 304 305 307 308 309 310 309 308 309 309 310 311 311 311 312 312 307 304 301 299 299 300 299 298 298
323 318 315 314 312 309 308 307 306 305 304 302 301 300 301 301 303 307 306 306 308 309 310 310 311 311 312 313 313 311 312 313 312 309 308 306 303 303 302 302 302 302 297
316 315 315 314 311 309 305 302 303 306 308 306 304 303 304 305 305 305 306 309 309 310 311 313 313 314 313 313 313 313 314 311 312 313 312 310 306 306 307 306 304 302 300
309 310 309 307 305 302 302 305 307 312 312 308 308 306 305 305 305 309 309 309 311 312 312 312 313 313 314 313 314 313 311 309 311 309 313 316 313 311 310 306 305 304 303
306 305 305 306 308 311 311 313 311 310 311 311 308 306 305 307 309 308 311 312 312 312 312 313 313 315 314 315 313 310 308 309 309 311 318 318 315 313 310 308 307 305 303
305 308 310 310 310 310 309 309 309 309 310 307 305 306 308 309 309 311 312 312 312 312 314 314 316 314 316 314 310 307 306 308 312 314 318 320 316 314 311 309 307 304 305
304 306 308 308 308 307 306 308 308 307 308 309 308 308 309 309 310 311 311 311 313 315 316 316 314 316 316 313 307 305 308 311 313 317 320 319 316 316 312 311 307 307 307
298 302 305 305 305 304 305 306 306 306 309 310 309 308 309 309 310 311 312 315 316 317 317 315 317 317 316 311 307 306 308 312 315 318 319 319 318 317 315 311 310 310 310
300 303 303 303 303 303 305 305 305 307 311 310 309 309 309 310 311 313 316 317 317 317 316 318 319 318 315 309 305 305 309 312 316 318 320 320 319 317 313 311 314 313 315
298 297 300 302 303 305 306 306 308 310 310 309 309 309 309 312 315 317 317 317 317 317 319 321 319 318 313 307 305 307 310 314 317 321 321 321 319 317 311 313 316 318 321
297 296 299 301 304 306 306 307 309 309 308 309 309 310 313 316 317 318 318 318 318 320 322 320 319 316 310 306 306 309 312 316 319 322 322 322 317 318 314 317 320 323 325
297 296 299 303 305 305 306 307 308 308 308 309 312 315 316 318 318 318 318 319 320 322 322 319 317 312 307 304 308 313 316 319 321 322 323 324 319 319 315 319 325 329 331
298 297 302 305 305 304 305 308 308 308 310 314 316 316 318 319 319 318 319 321 321 322 321 318 315 311 306 305 311 315 319 320 322 324 326 325 320 321 317 322 330 334 336
299 300 302 303 302 304 309 308 308 311 314 316 316 319 320 319 319 319 321 320 322 322 319 316 313 311 306 306 311 317 320 322 324 327 330 328 324 326 318 324 333 338 341
299 301 303 303 306 308 304 306 309 312 315 316 319 321 319 319 319 321 320 321 322 321 317 315 312 310 307 308 314 319 321 325 329 331 334 332 327 332 323 325 334 339 344
301 303 304 306 305 302 304 306 309 311 314 317 320 319 319 320 321 320 320 322 321 318 315 312 311 311 308 311 316 321 324 328 334 335 337 336 331 334 334 324 331 338 345
303 304 304 301 302 302 303 305 307 310 315 318 319 319 320 321 320 319 320 322 319 316 313 310 310 310 309 313 318 322 325 332 336 339 341 340 335 332 337 328 324 335 344
305 303 302 304 302 300 301 303 307 314 317 318 319 320 320 320 320 320 321 321 317 314 311 307 306 308 309 311 316 321 326 332 338 343 345 345 341 334 333 337 322 325 337
303 304 304 303 300 298 298 304 312 315 317 318 319 320 320 320 320 322 322 319 317 313 311 306 302 306 306 309 313 318 324 332 338 346 348 348 344 337 333 334 334 317 323